To NAV CANADA Home Page Login to a new session Search on AWWS site Feedback and Comments Disclaimer Vers la page française équivalente Tips FAQ What's new on the site To the Forecasts and Observations / NOTAM section To "File a Flight Plan" website Publications and other links Update of the User's profile FIC Telephone Numbers My Weather Data Folder Route Weather Data Regional Weather Data Local Weather Data To the Forecasts and Observations / NOTAM section
Request Generated 04/24/2014 at 21:16:05 UTC . Weather information available at that time is displayed.

METAR/TAF

WHALE COVE/NU    

METAR CYXN 242100Z 31008KT 15SM SKC M11/M14 A3044 RMK
-11.0/-19.5/0.0MM/28.0CM/TRACE LOOSE/LAST OB/NEXT 251300Z SLP308=
METAR CYXN 242000Z 31008KT 15SM SKC M12/M15 A3045 RMK SLP312=
METAR CYXN 241900Z 33009KT 15SM FEW220 M12/M15 A3046 RMK CI1 SLP315=

CYXN - No TAF is issued for this station

Your time UTC time
Weather data provided by Environment Canada and NAV CANADA